Whidbey Island, WA

6:05 PM PDT on July 27, 2017 (GMT -0700)
Whidbey Island Naval Air Station

Weather History for KNUW - July, 2013

Change the Weather History Date:

Wednesday, July 17, 2013

  Actual Average Record
Temperature  
Mean Temperature 65 °F -  
Max Temperature 73 °F 64 °F 79 °F (2004)
Min Temperature 55 °F 49 °F 48 °F (2003)
Growing Degree Days 15 (Base 50)    
Moisture  
Dew Point 54 °F    
Average Humidity 71    
Maximum Humidity 88    
Minimum Humidity 52    
Precipitation  
Precipitation 0.02 in - - ()
Sea Level Pressure  
Sea Level Pressure 30.09 in    
Wind  
Wind Speed 9 mph (South)    
Max Wind Speed 18 mph    
Max Gust Speed 23 mph    
Visibility 10 miles    
Events Rain , Thunderstorm    
Averages and records for this station are not official NWS values.
T = Trace of Precipitation, MM = Missing Value Source: NWS Daily Summary

Daily Weather History Graph

Daily Weather History Graph

Search for Another Location

Airport or City:

Trip Planner

Search our weather history database for the weather conditions in past years. The results will help you decide how hot, cold, wet, or windy it might be!

Date:

Astronomy

Jul. 17, 2013 Rise Set
Actual Time 5:27 AM PDT 9:05 PM PDT
Civil Twilight 4:48 AM PDT 9:44 PM PDT
Nautical Twilight 3:55 AM PDT 10:36 PM PDT
Astronomical Twilight 2:41 AM PDT 11:50 PM PDT
Moon 3:54 PM PDT (7/17) 12:47 AM PDT (7/17)
Length of Visible Light 16h 55m
Length of Day
15h 37m
Waxing Gibbous, 68% of the Moon is Illuminated
Jul 17
Waxing Gibbous
Jul 22
Full
Jul 29
Last Quarter
Aug 6
New
Aug 14
First Quarter

Hourly Weather History & Observations

Time (PDT) Temp. Dew Point Humidity Pressure Visibility Wind Dir Wind Speed Gust Speed Precip Events Conditions
12:51 AM 64.4 °F 51.8 °F 64% 29.89 in 10.0 mi WSW 3.5 mph - 0.00 in Rain Light Rain
12:56 AM 64.9 °F 51.1 °F 61% 29.91 in 10.0 mi Calm Calm - 0.00 in   Overcast
1:56 AM 61.0 °F 55.0 °F 81% 29.92 in 9.0 mi East 3.5 mph - 0.01 in Rain Light Rain
2:13 AM 59.0 °F 55.4 °F 88% 29.90 in 10.0 mi East 4.6 mph - 0.00 in Thunderstorm Thunderstorm
2:56 AM 62.1 °F 55.0 °F 78% 29.94 in 10.0 mi SSE 12.7 mph - 0.01 in Rain Light Rain
3:56 AM 64.0 °F 55.0 °F 73% 29.97 in 10.0 mi SSE 6.9 mph - 0.00 in   Overcast
4:56 AM 64.0 °F 55.0 °F 73% 29.98 in 10.0 mi SE 6.9 mph - N/A   Overcast
5:56 AM 61.0 °F 54.0 °F 78% 30.02 in 10.0 mi ESE 3.5 mph - N/A   Mostly Cloudy
6:56 AM 62.1 °F 55.9 °F 80% 30.04 in 10.0 mi SE 16.1 mph 23.0 mph N/A   Mostly Cloudy
7:56 AM 63.0 °F 55.9 °F 78% 30.06 in 10.0 mi SSE 17.3 mph - N/A   Overcast
8:56 AM 63.0 °F 55.0 °F 75% 30.09 in 9.0 mi SSE 16.1 mph 23.0 mph N/A   Mostly Cloudy
9:45 AM 66.2 °F 55.4 °F 68% 30.10 in 10.0 mi SSE 13.8 mph 21.9 mph N/A   Mostly Cloudy
9:56 AM 64.9 °F 55.0 °F 70% 30.12 in 10.0 mi SSE 13.8 mph - N/A   Mostly Cloudy
10:28 AM 66.2 °F 55.4 °F 68% 30.12 in 10.0 mi SE 12.7 mph - N/A   Mostly Cloudy
10:56 AM 66.9 °F 55.0 °F 66% 30.14 in 10.0 mi SSE 11.5 mph - N/A   Overcast
11:56 AM 70.0 °F 55.0 °F 59% 30.14 in 9.0 mi SSE 18.4 mph - N/A   Overcast
12:51 PM 71.6 °F 55.4 °F 57% 30.13 in 10.0 mi SSE 16.1 mph - N/A   Mostly Cloudy
12:56 PM 72.0 °F 55.0 °F 55% 30.15 in 10.0 mi SSE 15.0 mph 20.7 mph N/A   Mostly Cloudy
1:56 PM 73.9 °F 55.0 °F 52% 30.16 in 10.0 mi SSE 15.0 mph 23.0 mph N/A   Scattered Clouds
2:56 PM 73.9 °F 55.0 °F 52% 30.17 in 10.0 mi SE 16.1 mph - N/A   Scattered Clouds
3:56 PM 66.0 °F 55.0 °F 68% 30.18 in 10.0 mi WSW 12.7 mph 19.6 mph N/A   Scattered Clouds
4:56 PM 64.0 °F 54.0 °F 70% 30.18 in 10.0 mi SW 13.8 mph - N/A   Scattered Clouds
5:56 PM 64.9 °F 54.0 °F 68% 30.18 in 10.0 mi SW 11.5 mph - N/A   Scattered Clouds
6:56 PM 63.0 °F 53.1 °F 70% 30.19 in 10.0 mi SW 9.2 mph - N/A   Scattered Clouds
7:56 PM 61.0 °F 52.0 °F 72% 30.19 in 10.0 mi SW 9.2 mph - N/A   Scattered Clouds
8:56 PM 59.0 °F 52.0 °F 78% 30.20 in 10.0 mi SW 9.2 mph 20.7 mph N/A   Scattered Clouds
9:56 PM 57.9 °F 52.0 °F 81% 30.22 in 10.0 mi SW 8.1 mph - N/A   Scattered Clouds
10:56 PM 57.0 °F 52.0 °F 83% 30.21 in 10.0 mi SW 9.2 mph - N/A   Scattered Clouds
11:56 PM 55.9 °F 52.0 °F 87% 30.22 in 10.0 mi SW 6.9 mph - N/A   Scattered Clouds